Weather History for Torrington, WY

Change the Weather History Date:

Sunday, January 20, 2013

  Actual Average Record
Temperature  
Mean Temperature 24 °F 28 °F  
Max Temperature 35 °F 42 °F 68 °F (2005)
Min Temperature 12 °F 15 °F -2 °F (2011)
Degree Days  
Heating Degree Days 41 36  
Month to date heating degree days 787 743  
Since 1 July heating degree days 3269 3499  
Cooling Degree Days 0 0  
Month to date cooling degree days 0 0  
Year to date cooling degree days 0 0  
Moisture  
Dew Point 16 °F    
Average Humidity 68    
Maximum Humidity 88    
Minimum Humidity 47    
Precipitation  
Precipitation 0.00 in 0.01 in 0.26 in (2008)
Month to date precipitation 0.02 0.17  
Year to date precipitation 0.02 0.17  
Sea Level Pressure  
Sea Level Pressure 30.31 in    
Wind  
Wind Speed 8 mph (NNW)    
Max Wind Speed 24 mph    
Max Gust Speed 32 mph    
Visibility 10 miles    
Events      
T = Trace of Precipitation, MM = Missing Value Source: NWS Daily Summary

Daily Weather History Graph

Daily Weather History Graph

Search for Another Location

Airport:

Trip Planner

Search our weather history database for the weather conditions in past years. The results will help you decide how hot, cold, wet, or windy it might be!

Date:

Astronomy

Jan. 20, 2013 Rise Set
Actual Time 7:19 AM MST 4:56 PM MST
Civil Twilight 6:48 AM MST 5:27 PM MST
Nautical Twilight 6:14 AM MST 6:01 PM MST
Astronomical Twilight 5:41 AM MST 6:34 PM MST
Moon 11:59 AM MST (1/20) 1:53 AM MST (1/20)
Length of Visible Light 10h 38m
Length of Day
9h 37m
Waxing Gibbous, 67% of the Moon is Illuminated
Jan 20
Waxing Gibbous
Jan 26
Full
Feb 3
Last Quarter
Feb 10
New
Feb 17
First Quarter

Hourly Weather History & Observations

Time (MST) Temp. Windchill Dew Point Humidity Pressure Visibility Wind Dir Wind Speed Gust Speed Precip Events Conditions
12:53 AM 25.0 °F - 21.0 °F 85% 30.14 in 10.0 mi Calm Calm - N/A   Clear
1:53 AM 24.1 °F 19.7 °F 21.0 °F 88% 30.14 in 10.0 mi SSW 3.5 mph - N/A   Clear
2:53 AM 21.9 °F 14.5 °F 18.0 °F 85% 30.15 in 10.0 mi Variable 5.8 mph - N/A   Clear
3:53 AM 23.0 °F 18.4 °F 19.0 °F 85% 30.14 in 10.0 mi West 3.5 mph - N/A   Clear
4:53 AM 21.9 °F 17.2 °F 17.1 °F 82% 30.18 in 10.0 mi West 3.5 mph - N/A   Clear
5:53 AM 24.1 °F 18.2 °F 17.1 °F 75% 30.25 in 10.0 mi NW 4.6 mph - N/A   Clear
6:53 AM 24.1 °F 15.2 °F 16.0 °F 71% 30.27 in 10.0 mi WNW 8.1 mph - N/A   Clear
7:53 AM 25.0 °F 14.8 °F 16.0 °F 69% 30.32 in 10.0 mi NNW 10.4 mph - N/A   Clear
8:53 AM 32.0 °F 23.0 °F 18.0 °F 56% 30.35 in 10.0 mi NNW 11.5 mph - N/A   Clear
9:53 AM 33.1 °F 21.5 °F 18.0 °F 54% 30.38 in 10.0 mi NNW 19.6 mph 25.3 mph N/A   Clear
10:53 AM 35.1 °F 23.8 °F 18.0 °F 50% 30.39 in 10.0 mi North 20.7 mph 32.2 mph N/A   Mostly Cloudy
11:53 AM 34.0 °F 22.1 °F 17.1 °F 50% 30.38 in 10.0 mi North 21.9 mph 27.6 mph N/A   Overcast
12:53 PM 32.0 °F 23.6 °F 18.0 °F 56% 30.37 in 10.0 mi North 10.4 mph 18.4 mph N/A   Overcast
1:53 PM 33.1 °F 24.4 °F 18.0 °F 54% 30.34 in 10.0 mi North 11.5 mph - N/A   Scattered Clouds
2:53 PM 34.0 °F 27.2 °F 17.1 °F 50% 30.33 in 10.0 mi North 8.1 mph - N/A   Clear
3:53 PM 33.1 °F 23.9 °F 16.0 °F 50% 30.33 in 10.0 mi North 12.7 mph - N/A   Clear
4:53 PM 28.0 °F 20.0 °F 15.1 °F 58% 30.36 in 10.0 mi NNE 8.1 mph - N/A   Clear
5:53 PM 24.1 °F 15.2 °F 15.1 °F 69% 30.38 in 10.0 mi NNE 8.1 mph - N/A   Clear
6:53 PM 19.0 °F 13.9 °F 12.9 °F 77% 30.40 in 10.0 mi ESE 3.5 mph - N/A   Clear
7:53 PM 21.9 °F - 14.0 °F 72% 30.38 in 10.0 mi Calm Calm - N/A   Clear
8:53 PM 15.1 °F - 10.9 °F 84% 30.40 in 10.0 mi Calm Calm - N/A   Clear
9:53 PM 14.0 °F 2.9 °F 10.0 °F 84% 30.39 in 10.0 mi ENE 8.1 mph - N/A   Clear
10:53 PM 14.0 °F 5.1 °F 10.0 °F 84% 30.37 in 10.0 mi NE 5.8 mph - N/A   Clear
11:53 PM 14.0 °F 8.2 °F 10.9 °F 88% 30.36 in 10.0 mi NW 3.5 mph - N/A   Clear